Regional Weather Roundup
Issued by NWS Lake Charles, LA

Home | Current Version | Previous Version | Text Only | Print | Product List | Glossary On
Versions: 1 2 3 4 5 6 7 8 9 10 11 12 13 14 15 16 17 18 19 20 21 22 23 24 25 26 27 28 29 30 31 32 33 34 35 36 37 38 39 40 41 42 43 44 45 46 47 48 49 50
000
ASUS44 KLCH 282210
RWRLCH
REGIONAL WEATHER ROUNDUP
NATIONAL WEATHER SERVICE LAKE CHARLES LA
500 PM CDT THU JUL 28 2016

Note: "fair" indicates few or no clouds below 12,000 feet with no
significant weather and/or obstructions to visibility.


ACROSS SOUTHEAST TEXAS

CITY           SKY/WX    TMP DP  RH WIND       PRES   REMARKS
BEAUMONT       CLOUDY    84  75  74 VRB3      29.98F
BEAUMONT CITY  FAIR      82  74  74 NW6       29.99F
ORANGE         MOCLDY    82  72  72 CALM      30.00F
JASPER         CLOUDY    74  73  94 CALM      30.02F
$$

ACROSS CENTRAL LOUISIANA

CITY           SKY/WX    TMP DP  RH WIND       PRES   REMARKS
LEESVILLE      LGT RAIN  75  73  94 S8        30.04R
FULLERTON      LGT RAIN  74  72  93 CALM      30.00S
ALEXANDRIA INT LGT RAIN  75  73  93 SE8       30.01F
ESLER FIELD    LGT RAIN  76  75  97 SE6       30.02S
DERIDDER       TSTM      74  73  95 SE8       30.05R
OAKDALE        CLOUDY    80  72  75 NE8G16    30.01S
OPELOUSAS      FAIR      79  72  79 NE15G22   30.01S
$$

ACROSS SOUTHWEST AND SOUTH CENTRAL LOUISIANA

CITY           SKY/WX    TMP DP  RH WIND       PRES   REMARKS
SULPHUR        CLOUDY    86  71  61 W3        29.99F
LAKE CHARLES   PTSUNNY   83  72  69 W3        29.99S
CHENNAULT INT  NOT AVBL
CAMERON PHI    PTCLDY    88  79  74 SW8       29.98S HX 102
DEQUINCY       FAIR      78  70  77 NW3       30.01S
JENNINGS       FAIR      88  75  66 W3        29.98F
LAFAYETTE      PTSUNNY   86  73  65 VRB6      29.99F
NEW IBERIA     PTSUNNY   89  76  65 VRB6      29.99F HX 100
ABBEVILLE      MOCLDY    87  80  79 SW3       29.99F HX 102
PATTERSON      SUNNY     89  77  67 SW10      30.00F HX 101
SALT POINT       N/A     88  76  67 VRB5      29.98F
$$

SELECTED SITES ACROSS THE REGION

CITY           SKY/WX    TMP DP  RH WIND       PRES   REMARKS
HOUSTON BUSH   CLOUDY    81  73  76 W3        29.98F
HOUSTON HOBBY  PTSUNNY   85  71  63 W3        29.98F
GALVESTON      CLOUDY    88  77  69 S9        29.99S HX 100
COLLEGE STAT   CLOUDY    79  72  79 S7        29.98F
CONROE         CLOUDY    81  72  74 W7        29.99F
HUNTSVILLE     CLOUDY    77  73  87 SW5       29.98F
LUFKIN         CLOUDY    77  74  90 CALM      29.99S
SHREVEPORT     RAIN      74  73  97 SW6       29.96F
MONROE         CLOUDY    76  74  93 S3        29.99F
NATCHEZ MS     PTSUNNY   77  72  83 S7        30.03S
BATON ROUGE    LGT RAIN  78  73  84 NW5       30.00F
N.O. INTL ARPT PTSUNNY   94  74  52 S14       29.97F HX 104
SLIDELL        MOSUNNY   91  75  59 S8        29.99R HX 101
$$

MARINE REPORTS

STATION/POSITION TIME  SKY/WX   TEMP    WIND        PRES    VSBY
                                AIR SEA DIR/SP/G
                 (UTC)          (F)     (DEG/KT/KT) (MB)    (MI)
BUOY 30 S HIGH I 2150            86 87  280/  4/  6 1015.4F
WVE H/P(F/S)=  2/ 6

SEA RIM ST PARK  2200            87     240/  6/  8 1015.6F
PORT ARTHUR      2100               89  200/  6/  8 1015.9R
SABINE PASS N    2100            88 88  230/  7/ 12 1017.1R
TEXAS POINT      NOT AVBL
CALCASIEU PASS   2100            86 87  220/ 11/ 12 1015.2S
LK CHARLES BEACH 2100            83 86              1016.2R
MARSH ISLAND     NOT AVBL
FRESH WATER LOCK 2100            86 84  200/  7/ 11 1016.7F
AMERADA PASS     2100            88 89  180/  4/  7 1016.2R
$$



USA.gov is the U.S. government's official web portal to all federal, state and local government web resources and services.